Regional Weather Roundup
Issued by NWS

Home | Current Version | Previous Version | Graphics & Text | Print | Product List | Glossary On
Versions: 1 2 3 4 5 6 7 8 9 10 11 12 13 14 15 16 17 18 19 20 21 22 23 24 25 26 27 28 29 30 31 32 33 34 35 36 37 38 39 40 41 42 43 44 45 46 47 48 49 50
000
ASUS45 KSLC 262210
RWRUT

UTAH REGIONAL WEATHER ROUNDUP
NATIONAL WEATHER SERVICE SALT LAKE CITY UT
300 PM MST THU FEB 26 2015

UTZ001>011-023>025-262300-

NORTHERN UTAH

CITY           SKY/WX    TMP DP  RH WIND       PRES   REMARKS
BRIGHAM CITY   CLOUDY    40  29  64 S6        29.92F
HILL AFB       CLOUDY    36  33  86 SW6       29.90F WCI  32
LOGAN          CLOUDY    39  25  57 NW7       29.92F WCI  34
OGDEN          CLOUDY    39  30  70 W7        29.91F WCI  34
PROVO AIRPORT  PTSUNNY   37  28  70 W5        29.91F WCI  34
SALT LAKE CITY CLOUDY    38  33  82 NW6       29.91F WCI  33
VERNAL         CLOUDY    37  15  40 VRB7      29.87F WCI  32
WENDOVER       PTSUNNY   41  32  70 SW7       29.94F
HEBER CITY     CLOUDY    37  28  70 E3        29.85F
WEST JORDAN    CLOUDY    34  34 100 N9        29.92F WCI  26

$$

UTZ012>022-026-027-262300-

SOUTHERN/CENTRAL UTAH

CITY           SKY/WX    TMP DP  RH WIND       PRES   REMARKS
BLANDING       CLOUDY    35  17  48 SW6       29.97S WCI  30
BRYCE CANYON   CLOUDY    35  21  56 NW12      29.85F WCI  27
CEDAR CITY     PTSUNNY   45  21  38 SE5       29.86F
DELTA          CLOUDY    42  26  53 NW16      29.90F
HANKSVILLE     CLOUDY    43  27  52 NW5       29.90F
MILFORD        CLOUDY    49  24  37 N16       29.87F
MOAB/CYNLANDS  CLOUDY    43  17  35 S12       29.86F
PRICE          CLOUDY    39  17  41 CALM      29.84F
ST GEORGE      PTCLDY    61  28  29 W5        29.82F
KANAB          PTSUNNY   48  27  43 NW10G20   29.87S

$$

REGIONAL REPORTS     COLORADO/ARIZONA

CITY           SKY/WX    TMP DP  RH WIND       PRES   REMARKS
CRAIG, CO      LGT SNOW  29  19  66 CALM      29.89F
GRAND JUNCTION CLOUDY    42  15  33 NE6       29.87F
RIFLE          CLOUDY    39  11  31 CALM      29.86F
MONTROSE       CLOUDY    32  20  61 E5        29.89F WCI  27
CORTEZ         PTSUNNY   40  25  55 SW9       29.88F WCI  34
PAGE, AZ       CLOUDY    51  28  41 N9        29.80F
GRAND CANYON   CLOUDY    45  20  36 W8        29.86F
KINGMAN        MOSUNNY   63  21  20 NW6       29.84F
FLAGSTAFF      CLOUDY    41  21  44 SW13      29.89F

$$

REGIONAL REPORTS    NEVADA/IDAHO/WYOMING

CITY           SKY/WX    TMP DP  RH WIND       PRES   REMARKS
LAS VEGAS, NV  MOSUNNY   70  19  14 E6        29.77F
ELY            CLOUDY    40  16  37 NW16      29.92F WCI  31
ELKO           CLOUDY    43  25  49 W14       29.96F
POCATELLO, ID  PTSUNNY   42  12  29 NW10      29.94F
BURLEY         CLOUDY    43  21  41 W9        29.94F
EVANSTON, WY   HVY SNOW  25  22  88 E12       29.84F VSB 1/4 WCI  14
ROCK SPRINGS   CLOUDY    22  14  71 NE16      29.90F WCI   8
KEMMERER       LGT SNOW  27  19  74 E8        29.87  WCI  18

$$


USA.gov is the U.S. government's official web portal to all federal, state and local government web resources and services.